BREEZE-M DEB, 41318

Orbit data source: Space-Track

BREEZE-M DEB, 41318 is space debris in HEO originally from a launch on Thu, 17 May 2012 UTC launched from the Tyuratam Missile And Space Complex (TTMTR). Debris objects in space refer to the collection of defunct objects orbiting the Earth. Examples of debris include non-operational satellites, rocket bodies, and fragments generated from explosions, collisions, or faulty payload assembly.

Loading next visibility...
Identifier
41318, 2012-026E
Orbit
HEO
Last TLE update
1 day ago
Origin
Manufacturer
Khrunichev
Mission
Spacecraft
Bus & Motor
Unknown
Mass
Unknown
Launch date (UTC)
2012-05-17 (13 years ago)
Launch vehicle
Unknown
Launch site
Tyuratam Missile And Space Complex (TTMTR)
Object type
Payload
Rocket body
Debris
Shape & HBR
Unknown
Radar Cross Section
RCS unknown

Expand to show TLE details & history

TLE from 1 day ago
0 BREEZE-M DEB
1 41318U 12026E   25183.20189883 -.00000069  00000-0  00000-0 0  9992
2 41318   9.9433 169.2509 4103817 345.9402   5.2771  1.76520034 61018
Epoch: 2025-07-02T04:50Z
TLE epoch observation values (Epoch: 2025-07-02T04:50:44.058Z)
Latitude
0.00004°
Longitude
176.05627°
Altitude
10,833.029 km
Speed
5.704 km/s
True Right ascension
11h 16m 54s
True Declination
0° 00' 00"
Sunlit
Object was in daylight at epoch
Visualization orbit readout
Latitude
4.80145°
Longitude
-32.7166°
Altitude
33,442.596 km
Speed
2.498 km/s
Apparent Right ascension
20h 56m 23s
Apparent Declination
-1° 08' 22"
Sunlit
Object is in daylight
Visualization observer readout
Local Sidereal Time
01:11:15
Azimuth
251.534° W
Elevation
19.075°
Doppler factor
1
Orbital elements
Apogee altitude
34,413.542 km
Perigee altitude
10,675.062 km
Semi-major axis
28,922.439 km
Eccentricity
0.41038
Inclination
9.9433°
RAAN
169.2509°
Arg. of periapsis
345.9402°
True anomaly
Unknown
Mean anomaly
5.2771°
Eccentric anomaly
Unknown
Mean motion
0.44126 °/min
Orbital period
815.85 mins
BSTAR
0
Loading maneuver chart data...
Loading SW <> Apogee altitude chart data...
Loading historical data...
Loading historical data...
Loading historical data...
Loading historical data...
Loading historical data...
Loading historical data...
Loading historical data...

BREEZE-M DEB Visibility forecast

Observer location: undefined°, undefined°

Span
Click to sort rows by Start time (UTC) header in descending order
Start Az.
Max El. time (UTC)
Max El. Az.
Max El.
End time (UTC)
End Az.
147 mins2025-07-03 13:24:26.071Z251.518° W2025-07-03 13:24:26.071Z251.518° W18.091°2025-07-03 15:51:26.071Z252.729° W
135 mins2025-07-03 20:00:26.071Z228.107° WSW2025-07-03 21:17:26.071Z166.455° S23.453°2025-07-03 22:15:26.071Z107.852° ESE
|